| time (UTC) | temp F | wind direction | speed MPH | gust MPH | rain 1hr in | rain 24hr in | rain mn in | humidity % | barometer mb |
| 20260831225535 | 92 | 0.0 | 0.0 | 0.00 | 0.00 | 0.00 | 49 | 1017.0 | |
| 20260831225030 | 92 | 0.0 | 0.0 | 0.00 | 0.00 | 0.00 | 49 | 1016.9 | |
| 20260831224525 | 93 | 0.0 | 0.0 | 0.00 | 0.00 | 0.00 | 49 | 1017.1 | |
| 20260831224020 | 93 | 0.0 | 0.0 | 0.00 | 0.00 | 0.00 | 49 | 1016.9 | |
| 20260831223515 | 93 | 0.0 | 0.0 | 0.00 | 0.00 | 0.00 | 49 | 1016.9 | |
| 20260831223012 | 93 | 0.0 | 0.0 | 0.00 | 0.00 | 0.00 | 48 | 1017.2 | |
| 20260831222508 | 93 | 0.0 | 0.0 | 0.00 | 0.00 | 0.00 | 48 | 1016.8 | |
| 20260831222007 | 93 | 0.0 | 0.0 | 0.00 | 0.00 | 0.00 | 49 | 1017.0 | |
| 20260831221503 | 93 | 0.0 | 0.0 | 0.00 | 0.00 | 0.00 | 48 | 1016.9 | |
| 20260831220958 | 93 | 0.0 | 0.0 | 0.00 | 0.00 | 0.00 | 48 | 1017.0 | |
| 20260831220453 | 93 | 0.0 | 0.0 | 0.00 | 0.00 | 0.00 | 48 | 1017.0 | |
| 20260831215948 | 94 | 0.0 | 0.0 | 0.00 | 0.00 | 0.00 | 48 | 1016.8 | |
| 20260831215444 | 94 | 0.0 | 0.0 | 0.00 | 0.00 | 0.00 | 48 | 1017.1 | |
| 20260831214940 | 94 | 0.0 | 0.0 | 0.00 | 0.00 | 0.00 | 47 | 1017.1 | |
| 20260831214437 | 94 | 0.0 | 0.0 | 0.00 | 0.00 | 0.00 | 48 | 1017.2 | |
| 20260831213933 | 94 | 0.0 | 0.0 | 0.00 | 0.00 | 0.00 | 45 | 1017.3 | |
| 20260831213429 | 94 | 0.0 | 0.0 | 0.00 | 0.00 | 0.00 | 46 | 1017.1 | |
| 20260831212929 | 94 | 0.0 | 0.0 | 0.00 | 0.00 | 0.00 | 46 | 1017.4 | |
| 20260831212425 | 94 | 0.0 | 0.0 | 0.00 | 0.00 | 0.00 | 47 | 1017.1 | |
| 20260831211925 | 94 | 0.0 | 0.0 | 0.00 | 0.00 | 0.00 | 47 | 1017.4 | |
| 20260831211420 | 94 | 0.0 | 0.0 | 0.00 | 0.00 | 0.00 | 48 | 1017.3 | |
| 20260831210914 | 94 | 0.0 | 0.0 | 0.00 | 0.00 | 0.00 | 48 | 1017.3 | |
| 20260831210409 | 95 | 0.0 | 0.0 | 0.00 | 0.00 | 0.00 | 46 | 1017.4 | |
| 20260831205905 | 95 | 0.0 | 0.0 | 0.00 | 0.00 | 0.00 | 47 | 1017.6 | |
| 20260831205400 | 95 | 0.0 | 0.0 | 0.00 | 0.00 | 0.00 | 47 | 1017.5 | |
| 20260831204855 | 95 | 0.0 | 0.0 | 0.00 | 0.00 | 0.00 | 47 | 1017.5 | |
| 20260831204354 | 95 | 0.0 | 0.0 | 0.00 | 0.00 | 0.00 | 46 | 1017.6 | |
| 20260831203854 | 95 | 0.0 | 0.0 | 0.00 | 0.00 | 0.00 | 46 | 1017.8 | |
| 20260831203349 | 95 | 0.0 | 0.0 | 0.00 | 0.00 | 0.00 | 46 | 1017.9 | |
| 20260831202847 | 95 | 0.0 | 0.0 | 0.00 | 0.00 | 0.00 | 45 | 1017.8 | |
| 20260831202342 | 95 | 0.0 | 0.0 | 0.00 | 0.00 | 0.00 | 47 | 1018.0 | |
| 20260831201842 | 95 | 0.0 | 0.0 | 0.00 | 0.00 | 0.00 | 46 | 1017.8 | |
| 20260831201340 | 95 | 0.0 | 0.0 | 0.00 | 0.00 | 0.00 | 47 | 1018.0 | |
| 20260831200837 | 95 | 0.0 | 0.0 | 0.00 | 0.00 | 0.00 | 47 | 1018.3 | |
| 20260831200332 | 95 | 0.0 | 0.0 | 0.00 | 0.00 | 0.00 | 47 | 1018.0 | |
| 20260831195827 | 95 | 0.0 | 0.0 | 0.00 | 0.00 | 0.00 | 49 | 1018.2 | |
| 20260831195322 | 94 | 0.0 | 0.0 | 0.00 | 0.00 | 0.00 | 48 | 1018.3 | |
| 20260831194818 | 94 | 0.0 | 0.0 | 0.00 | 0.00 | 0.00 | 47 | 1018.1 | |
| 20260831194313 | 94 | 0.0 | 0.0 | 0.00 | 0.00 | 0.00 | 48 | 1018.2 | |
| 20260831193812 | 93 | 0.0 | 0.0 | 0.00 | 0.00 | 0.00 | 50 | 1018.2 | |
| 20260831193307 | 94 | 0.0 | 0.0 | 0.00 | 0.00 | 0.00 | 47 | 1018.2 | |
| 20260831192802 | 94 | 0.0 | 0.0 | 0.00 | 0.00 | 0.00 | 48 | 1018.3 | |
| 20260831192257 | 93 | 0.0 | 0.0 | 0.00 | 0.00 | 0.00 | 50 | 1018.5 | |
| 20260831191753 | 93 | 0.0 | 0.0 | 0.00 | 0.00 | 0.00 | 48 | 1018.4 | |
| 20260831191249 | 93 | 0.0 | 0.0 | 0.00 | 0.00 | 0.00 | 50 | 1018.5 | |
| 20260831190745 | 94 | 0.0 | 0.0 | 0.00 | 0.00 | 0.00 | 49 | 1018.4 | |
| 20260831190244 | 94 | 0.0 | 0.0 | 0.00 | 0.00 | 0.00 | 49 | 1018.7 | |
| 20260831185738 | 93 | 0.0 | 0.0 | 0.00 | 0.00 | 0.00 | 49 | 1018.7 | |
| 20260831185235 | 93 | 0.0 | 0.0 | 0.00 | 0.00 | 0.00 | 50 | 1018.5 | |
| 20260831184733 | 93 | 0.0 | 0.0 | 0.00 | 0.00 | 0.00 | 49 | 1018.6 | |
| 20260831184229 | 93 | 0.0 | 0.0 | 0.00 | 0.00 | 0.00 | 51 | 1018.8 | |
| 20260831183724 | 93 | 0.0 | 0.0 | 0.00 | 0.00 | 0.00 | 50 | 1018.8 | |
| 20260831183223 | 93 | 0.0 | 0.0 | 0.00 | 0.00 | 0.00 | 51 | 1018.9 | |
| 20260831182723 | 93 | 0.0 | 0.0 | 0.00 | 0.00 | 0.00 | 52 | 1018.8 | |
| 20260831182218 | 93 | 0.0 | 0.0 | 0.00 | 0.00 | 0.00 | 51 | 1018.8 | |
| 20260831181718 | 92 | 0.0 | 0.0 | 0.00 | 0.00 | 0.00 | 51 | 1018.8 | |
| 20260831181214 | 92 | 0.0 | 0.0 | 0.00 | 0.00 | 0.00 | 50 | 1018.7 | |
| 20260831180708 | 92 | 0.0 | 0.0 | 0.00 | 0.00 | 0.00 | 52 | 1019.1 | |
| 20260831180203 | 92 | 0.0 | 0.0 | 0.00 | 0.00 | 0.00 | 54 | 1019.1 | |
| 20260831175703 | 92 | 0.0 | 0.0 | 0.00 | 0.00 | 0.00 | 54 | 1019.3 | |
| 20260831175200 | 91 | 0.0 | 0.0 | 0.00 | 0.00 | 0.00 | 54 | 1019.1 | |
| 20260831174659 | 91 | 0.0 | 0.0 | 0.00 | 0.00 | 0.00 | 55 | 1019.1 | |
| 20260831174155 | 91 | 0.0 | 0.0 | 0.00 | 0.00 | 0.00 | 55 | 1019.2 | |
| 20260831173654 | 91 | 0.0 | 0.0 | 0.00 | 0.00 | 0.00 | 54 | 1019.3 | |
| 20260831173149 | 91 | 0.0 | 0.0 | 0.00 | 0.00 | 0.00 | 55 | 1019.4 | |
| 20260831172649 | 91 | 0.0 | 0.0 | 0.00 | 0.00 | 0.00 | 55 | 1019.3 | |
| 20260831172144 | 91 | 0.0 | 0.0 | 0.00 | 0.00 | 0.00 | 55 | 1019.3 | |
| 20260831171639 | 91 | 0.0 | 0.0 | 0.00 | 0.00 | 0.00 | 56 | 1019.5 | |
| 20260831171137 | 91 | 0.0 | 0.0 | 0.00 | 0.00 | 0.00 | 56 | 1019.3 | |
| 20260831170632 | 91 | 0.0 | 0.0 | 0.00 | 0.00 | 0.00 | 54 | 1019.2 | |
| 20260831170129 | 91 | 0.0 | 0.0 | 0.00 | 0.00 | 0.00 | 55 | 1019.4 | |
| 20260831165625 | 91 | 0.0 | 0.0 | 0.00 | 0.00 | 0.00 | 56 | 1019.5 | |
| 20260831165121 | 91 | 0.0 | 0.0 | 0.00 | 0.00 | 0.00 | 57 | 1019.6 | |
| 20260831164617 | 91 | 0.0 | 0.0 | 0.00 | 0.00 | 0.00 | 55 | 1019.7 | |
| 20260831164112 | 91 | 0.0 | 0.0 | 0.00 | 0.00 | 0.00 | 58 | 1019.7 | |
| 20260831163607 | 90 | 0.0 | 0.0 | 0.00 | 0.00 | 0.00 | 58 | 1019.7 | |
| 20260831163103 | 90 | 0.0 | 0.0 | 0.00 | 0.00 | 0.00 | 57 | 1019.9 | |
| 20260831162602 | 89 | 0.0 | 0.0 | 0.00 | 0.00 | 0.00 | 59 | 1019.8 | |
| 20260831162100 | 89 | 0.0 | 0.0 | 0.00 | 0.00 | 0.00 | 58 | 1020.0 | |
| 20260831161556 | 89 | 0.0 | 0.0 | 0.00 | 0.00 | 0.00 | 59 | 1020.1 | |
| 20260831161053 | 89 | 0.0 | 0.0 | 0.00 | 0.00 | 0.00 | 60 | 1020.0 | |
| 20260831160551 | 89 | 0.0 | 0.0 | 0.00 | 0.00 | 0.00 | 60 | 1019.9 | |
| 20260831160047 | 89 | 0.0 | 0.0 | 0.00 | 0.00 | 0.00 | 59 | 1019.9 | |
| 20260831155541 | 89 | 0.0 | 0.0 | 0.00 | 0.00 | 0.00 | 59 | 1019.9 | |
| 20260831155037 | 88 | 0.0 | 0.0 | 0.00 | 0.00 | 0.00 | 61 | 1020.0 | |
| 20260831154533 | 88 | 0.0 | 0.0 | 0.00 | 0.00 | 0.00 | 61 | 1020.1 | |
| 20260831154033 | 88 | 0.0 | 0.0 | 0.00 | 0.00 | 0.00 | 61 | 1020.1 | |
| 20260831153532 | 87 | 0.0 | 0.0 | 0.00 | 0.00 | 0.00 | 61 | 1020.2 | |
| 20260831153029 | 87 | 0.0 | 0.0 | 0.00 | 0.00 | 0.00 | 65 | 1020.0 | |
| 20260831152524 | 87 | 0.0 | 0.0 | 0.00 | 0.00 | 0.00 | 65 | 1020.1 | |
| 20260831152020 | 87 | 0.0 | 0.0 | 0.00 | 0.00 | 0.00 | 63 | 1020.0 | |
| 20260831151519 | 87 | 0.0 | 0.0 | 0.00 | 0.00 | 0.00 | 65 | 1019.9 | |
| 20260831151019 | 86 | 0.0 | 0.0 | 0.00 | 0.00 | 0.00 | 66 | 1019.9 | |
| 20260831150515 | 86 | 0.0 | 0.0 | 0.00 | 0.00 | 0.00 | 66 | 1020.1 | |
| 20260831150011 | 86 | 0.0 | 0.0 | 0.00 | 0.00 | 0.00 | 68 | 1019.8 | |
| 20260831145505 | 85 | 0.0 | 0.0 | 0.00 | 0.00 | 0.00 | 67 | 1020.0 | |
| 20260831145001 | 85 | 0.0 | 0.0 | 0.00 | 0.00 | 0.00 | 68 | 1020.2 | |
| 20260831144456 | 85 | 0.0 | 0.0 | 0.00 | 0.00 | 0.00 | 69 | 1019.9 | |
| 20260831143952 | 84 | 0.0 | 0.0 | 0.00 | 0.00 | 0.00 | 69 | 1020.0 | |
| 20260831143446 | 84 | 0.0 | 0.0 | 0.00 | 0.00 | 0.00 | 71 | 1019.9 | |
| 20260831142942 | 83 | 0.0 | 0.0 | 0.00 | 0.00 | 0.00 | 71 | 1019.8 | |
| 20260831142438 | 83 | 0.0 | 0.0 | 0.00 | 0.00 | 0.00 | 72 | 1019.7 | |
| 20260831141932 | 83 | 0.0 | 0.0 | 0.00 | 0.00 | 0.00 | 73 | 1019.6 | |
| 20260831141426 | 82 | 0.0 | 0.0 | 0.00 | 0.00 | 0.00 | 74 | 1019.8 | |
| 20260831140921 | 82 | 0.0 | 0.0 | 0.00 | 0.00 | 0.00 | 74 | 1019.7 | |
| 20260831140416 | 81 | 0.0 | 0.0 | 0.00 | 0.00 | 0.00 | 75 | 1019.7 | |
| 20260831135914 | 81 | 0.0 | 0.0 | 0.00 | 0.00 | 0.00 | 75 | 1019.6 | |
| 20260831135409 | 81 | 0.0 | 0.0 | 0.00 | 0.00 | 0.00 | 76 | 1019.4 | |
| 20260831134904 | 80 | 0.0 | 0.0 | 0.00 | 0.00 | 0.00 | 76 | 1019.5 | |
| 20260831134400 | 80 | 0.0 | 0.0 | 0.00 | 0.00 | 0.00 | 77 | 1019.4 | |
| 20260831133859 | 79 | 0.0 | 0.0 | 0.00 | 0.00 | 0.00 | 78 | 1019.4 | |
| 20260831133354 | 79 | 0.0 | 0.0 | 0.00 | 0.00 | 0.00 | 79 | 1019.6 | |
| 20260831132849 | 78 | 0.0 | 0.0 | 0.00 | 0.00 | 0.00 | 80 | 1019.6 | |
| 20260831132345 | 78 | 0.0 | 0.0 | 0.00 | 0.00 | 0.00 | 80 | 1019.4 | |
| 20260831131844 | 78 | 0.0 | 0.0 | 0.00 | 0.00 | 0.00 | 80 | 1019.5 | |
| 20260831131340 | 78 | 0.0 | 0.0 | 0.00 | 0.00 | 0.00 | 80 | 1019.4 | |
| 20260831130835 | 77 | 0.0 | 0.0 | 0.00 | 0.00 | 0.00 | 81 | 1019.3 | |
| 20260831130331 | 77 | 0.0 | 0.0 | 0.00 | 0.00 | 0.00 | 81 | 1019.4 | |
| 20260831125830 | 77 | 0.0 | 0.0 | 0.00 | 0.00 | 0.00 | 81 | 1019.4 | |
| 20260831125325 | 77 | 0.0 | 0.0 | 0.00 | 0.00 | 0.00 | 81 | 1019.3 | |
| 20260831124825 | 76 | 0.0 | 0.0 | 0.00 | 0.00 | 0.00 | 82 | 1019.4 | |
| 20260831124322 | 76 | 0.0 | 0.0 | 0.00 | 0.00 | 0.00 | 82 | 1019.2 | |
| 20260831123821 | 76 | 0.0 | 0.0 | 0.00 | 0.00 | 0.00 | 83 | 1019.2 | |
| 20260831123320 | 75 | 0.0 | 0.0 | 0.00 | 0.00 | 0.00 | 83 | 1019.2 | |
| 20260831122815 | 75 | 0.0 | 0.0 | 0.00 | 0.00 | 0.00 | 83 | 1019.0 | |
| 20260831122310 | 75 | 0.0 | 0.0 | 0.00 | 0.00 | 0.00 | 84 | 1019.0 | |
| 20260831121805 | 75 | 0.0 | 0.0 | 0.00 | 0.00 | 0.00 | 84 | 1019.0 | |
| 20260831121301 | 74 | 0.0 | 0.0 | 0.00 | 0.00 | 0.00 | 84 | 1019.1 | |
| 20260831120756 | 74 | 0.0 | 0.0 | 0.00 | 0.00 | 0.00 | 84 | 1019.0 | |
| 20260831120251 | 74 | 0.0 | 0.0 | 0.00 | 0.00 | 0.00 | 84 | 1019.0 | |
| 20260831115746 | 74 | 0.0 | 0.0 | 0.00 | 0.00 | 0.00 | 84 | 1018.8 | |
| 20260831115242 | 74 | 0.0 | 0.0 | 0.00 | 0.00 | 0.00 | 84 | 1018.7 | |
| 20260831114741 | 74 | 0.0 | 0.0 | 0.00 | 0.00 | 0.00 | 84 | 1018.6 | |
| 20260831114241 | 74 | 0.0 | 0.0 | 0.00 | 0.00 | 0.00 | 84 | 1018.7 | |
| 20260831113736 | 74 | 0.0 | 0.0 | 0.00 | 0.00 | 0.00 | 84 | 1018.4 | |
| 20260831113231 | 73 | 0.0 | 0.0 | 0.00 | 0.00 | 0.00 | 84 | 1018.5 | |
| 20260831112730 | 73 | 0.0 | 0.0 | 0.00 | 0.00 | 0.00 | 84 | 1018.4 | |
| 20260831112226 | 73 | 0.0 | 0.0 | 0.00 | 0.00 | 0.00 | 84 | 1018.4 | |
| 20260831111721 | 73 | 0.0 | 0.0 | 0.00 | 0.00 | 0.00 | 84 | 1018.4 | |
| 20260831111217 | 73 | 0.0 | 0.0 | 0.00 | 0.00 | 0.00 | 85 | 1018.6 | |
| 20260831110713 | 73 | 0.0 | 0.0 | 0.00 | 0.00 | 0.00 | 84 | 1018.3 | |
| 20260831110208 | 73 | 0.0 | 0.0 | 0.00 | 0.00 | 0.00 | 85 | 1018.5 | |
| 20260831105706 | 73 | 0.0 | 0.0 | 0.00 | 0.00 | 0.00 | 85 | 1018.3 | |
| 20260831105202 | 73 | 0.0 | 0.0 | 0.00 | 0.00 | 0.00 | 85 | 1018.4 | |
| 20260831104657 | 73 | 0.0 | 0.0 | 0.00 | 0.00 | 0.00 | 84 | 1018.2 | |
| 20260831104153 | 73 | 0.0 | 0.0 | 0.00 | 0.00 | 0.00 | 84 | 1018.5 | |
| 20260831103648 | 73 | 0.0 | 0.0 | 0.00 | 0.00 | 0.00 | 84 | 1018.4 | |
| 20260831103144 | 73 | 0.0 | 0.0 | 0.00 | 0.00 | 0.00 | 83 | 1018.4 | |
| 20260831102643 | 73 | 0.0 | 0.0 | 0.00 | 0.00 | 0.00 | 83 | 1018.4 | |
| 20260831102138 | 73 | 0.0 | 0.0 | 0.00 | 0.00 | 0.00 | 83 | 1018.3 | |
| 20260831101633 | 73 | 0.0 | 0.0 | 0.00 | 0.00 | 0.00 | 83 | 1018.2 | |
| 20260831101129 | 73 | 0.0 | 0.0 | 0.00 | 0.00 | 0.00 | 83 | 1018.2 | |
| 20260831100625 | 73 | 0.0 | 0.0 | 0.00 | 0.00 | 0.00 | 83 | 1018.1 | |
| 20260831100121 | 73 | 0.0 | 0.0 | 0.00 | 0.00 | 0.00 | 83 | 1017.9 | |
| 20260831095619 | 73 | 0.0 | 0.0 | 0.00 | 0.00 | 0.00 | 83 | 1018.1 | |
| 20260831095114 | 73 | 0.0 | 0.0 | 0.00 | 0.00 | 0.00 | 83 | 1017.7 | |
| 20260831094610 | 73 | 0.0 | 0.0 | 0.00 | 0.00 | 0.00 | 83 | 1017.9 | |
| 20260831094106 | 73 | 0.0 | 0.0 | 0.00 | 0.00 | 0.00 | 82 | 1018.1 | |
| 20260831093601 | 73 | 0.0 | 0.0 | 0.00 | 0.00 | 0.00 | 82 | 1018.0 | |
| 20260831093057 | 73 | 0.0 | 0.0 | 0.00 | 0.00 | 0.00 | 82 | 1017.9 | |
| 20260831092553 | 73 | 0.0 | 0.0 | 0.00 | 0.00 | 0.00 | 82 | 1017.9 | |
| 20260831092048 | 74 | 0.0 | 0.0 | 0.00 | 0.00 | 0.00 | 82 | 1018.0 | |
| 20260831091548 | 74 | 0.0 | 0.0 | 0.00 | 0.00 | 0.00 | 82 | 1017.8 | |
| 20260831091043 | 74 | 0.0 | 0.0 | 0.00 | 0.00 | 0.00 | 82 | 1018.0 | |
| 20260831090539 | 74 | 0.0 | 0.0 | 0.00 | 0.00 | 0.00 | 82 | 1018.2 | |
| 20260831090035 | 74 | 0.0 | 0.0 | 0.00 | 0.00 | 0.00 | 82 | 1017.9 | |
| 20260831085530 | 74 | 0.0 | 0.0 | 0.00 | 0.00 | 0.00 | 82 | 1018.1 | |
| 20260831085025 | 74 | 0.0 | 0.0 | 0.00 | 0.00 | 0.00 | 82 | 1018.1 | |
| 20260831084521 | 74 | 0.0 | 0.0 | 0.00 | 0.00 | 0.00 | 81 | 1017.9 | |
| 20260831084017 | 75 | 0.0 | 0.0 | 0.00 | 0.00 | 0.00 | 81 | 1017.9 | |
| 20260831083518 | 75 | 0.0 | 0.0 | 0.00 | 0.00 | 0.00 | 80 | 1017.9 | |
| 20260831083012 | 75 | 0.0 | 0.0 | 0.00 | 0.00 | 0.00 | 81 | 1018.0 | |
| 20260831082506 | 75 | 0.0 | 0.0 | 0.00 | 0.00 | 0.00 | 81 | 1017.9 | |
| 20260831082001 | 75 | 0.0 | 0.0 | 0.00 | 0.00 | 0.00 | 81 | 1018.0 | |
| 20260831081456 | 75 | 0.0 | 0.0 | 0.00 | 0.00 | 0.00 | 81 | 1017.7 | |
| 20260831080952 | 75 | 0.0 | 0.0 | 0.00 | 0.00 | 0.00 | 81 | 1017.8 | |
| 20260831080446 | 75 | 0.0 | 0.0 | 0.00 | 0.00 | 0.00 | 80 | 1017.6 | |
| 20260831075942 | 75 | 0.0 | 0.0 | 0.00 | 0.00 | 0.00 | 80 | 1017.6 | |
| 20260831075437 | 75 | 0.0 | 0.0 | 0.00 | 0.00 | 0.00 | 80 | 1017.7 | |
| 20260831074932 | 75 | 0.0 | 0.0 | 0.00 | 0.00 | 0.00 | 80 | 1017.6 | |
| 20260831074427 | 75 | 0.0 | 0.0 | 0.00 | 0.00 | 0.00 | 80 | 1017.6 | |
| 20260831073921 | 75 | 0.0 | 0.0 | 0.00 | 0.00 | 0.00 | 79 | 1017.5 | |
| 20260831073421 | 75 | 0.0 | 0.0 | 0.00 | 0.00 | 0.00 | 80 | 1017.4 | |
| 20260831072915 | 75 | 0.0 | 0.0 | 0.00 | 0.00 | 0.00 | 80 | 1017.4 | |
| 20260831072411 | 75 | 0.0 | 0.0 | 0.00 | 0.00 | 0.00 | 80 | 1017.7 | |
| 20260831071908 | 75 | 0.0 | 0.0 | 0.00 | 0.00 | 0.00 | 80 | 1017.5 | |
| 20260831071406 | 75 | 0.0 | 0.0 | 0.00 | 0.00 | 0.00 | 80 | 1018.0 | |
| 20260831070901 | 75 | 0.0 | 0.0 | 0.00 | 0.00 | 0.00 | 79 | 1017.8 | |
| 20260831070400 | 75 | 0.0 | 0.0 | 0.00 | 0.00 | 0.00 | 79 | 1017.9 | |
| 20260831065859 | 75 | 0.0 | 0.0 | 0.00 | 0.00 | 0.00 | 79 | 1017.6 | |
| 20260831065357 | 75 | 0.0 | 0.0 | 0.00 | 0.00 | 0.00 | 78 | 1017.9 | |
| 20260831064853 | 75 | 0.0 | 0.0 | 0.00 | 0.00 | 0.00 | 78 | 1018.2 | |
| 20260831064348 | 75 | 0.0 | 0.0 | 0.00 | 0.00 | 0.00 | 78 | 1017.9 | |
| 20260831063844 | 76 | 0.0 | 0.0 | 0.00 | 0.00 | 0.00 | 78 | 1017.7 | |
| 20260831063339 | 76 | 0.0 | 0.0 | 0.00 | 0.00 | 0.00 | 78 | 1017.7 | |
| 20260831062838 | 76 | 0.0 | 0.0 | 0.00 | 0.00 | 0.00 | 78 | 1018.0 | |
| 20260831062334 | 76 | 0.0 | 0.0 | 0.00 | 0.00 | 0.00 | 78 | 1018.1 | |
| 20260831061832 | 76 | 0.0 | 0.0 | 0.00 | 0.00 | 0.00 | 78 | 1018.1 | |
| 20260831061331 | 76 | 0.0 | 0.0 | 0.00 | 0.00 | 0.00 | 78 | 1017.9 | |
| 20260831060827 | 76 | 0.0 | 0.0 | 0.00 | 0.00 | 0.00 | 78 | 1018.0 | |
| 20260831060322 | 75 | 0.0 | 0.0 | 0.00 | 0.00 | 0.00 | 78 | 1017.9 | |
| 20260831055821 | 75 | 0.0 | 0.0 | 0.00 | 0.00 | 0.00 | 79 | 1018.0 | |
| 20260831055317 | 75 | 0.0 | 0.0 | 0.00 | 0.00 | 0.00 | 78 | 1018.0 | |
| 20260831054812 | 76 | 0.0 | 0.0 | 0.00 | 0.00 | 0.00 | 78 | 1017.8 | |
| 20260831054307 | 76 | 0.0 | 0.0 | 0.00 | 0.00 | 0.00 | 77 | 1018.1 | |
| 20260831053806 | 76 | 0.0 | 0.0 | 0.00 | 0.00 | 0.00 | 77 | 1018.1 | |
| 20260831053305 | 76 | 0.0 | 0.0 | 0.00 | 0.00 | 0.00 | 77 | 1018.0 | |
| 20260831052759 | 76 | 0.0 | 0.0 | 0.00 | 0.00 | 0.00 | 77 | 1018.1 | |
| 20260831052259 | 76 | 0.0 | 0.0 | 0.00 | 0.00 | 0.00 | 77 | 1017.9 | |
| 20260831051757 | 76 | 0.0 | 0.0 | 0.00 | 0.00 | 0.00 | 77 | 1018.0 | |
| 20260831051256 | 76 | 0.0 | 0.0 | 0.00 | 0.00 | 0.00 | 77 | 1017.9 | |
| 20260831050751 | 76 | 0.0 | 0.0 | 0.00 | 0.00 | 0.00 | 77 | 1017.9 | |
| 20260831050250 | 76 | 0.0 | 0.0 | 0.00 | 0.00 | 0.00 | 76 | 1018.1 | |
| 20260831045744 | 76 | 0.0 | 0.0 | 0.00 | 0.00 | 0.00 | 76 | 1018.1 | |
| 20260831045239 | 76 | 0.0 | 0.0 | 0.00 | 0.00 | 0.00 | 76 | 1018.0 | |
| 20260831044734 | 76 | 0.0 | 0.0 | 0.00 | 0.00 | 0.00 | 77 | 1018.1 | |
| 20260831044229 | 76 | 0.0 | 0.0 | 0.00 | 0.00 | 0.00 | 77 | 1018.1 | |
| 20260831043725 | 76 | 0.0 | 0.0 | 0.00 | 0.00 | 0.00 | 77 | 1018.2 | |
| 20260831043219 | 76 | 0.0 | 0.0 | 0.00 | 0.00 | 0.00 | 76 | 1018.2 | |
| 20260831042719 | 76 | 0.0 | 0.0 | 0.00 | 0.00 | 0.00 | 76 | 1018.1 | |
| 20260831042214 | 76 | 0.0 | 0.0 | 0.00 | 0.00 | 0.00 | 75 | 1018.0 | |
| 20260831041709 | 77 | 0.0 | 0.0 | 0.00 | 0.00 | 0.00 | 75 | 1018.0 | |
| 20260831041208 | 77 | 0.0 | 0.0 | 0.00 | 0.00 | 0.00 | 75 | 1017.8 | |
| 20260831040703 | 77 | 0.0 | 0.0 | 0.00 | 0.00 | 0.00 | 75 | 1017.9 | |
| 20260831040202 | 77 | 0.0 | 0.0 | 0.00 | 0.00 | 0.00 | 75 | 1017.8 | |
| 20260831035701 | 77 | 0.0 | 0.0 | 0.00 | 0.00 | 0.00 | 74 | 1017.9 | |
| 20260831035156 | 77 | 0.0 | 0.0 | 0.00 | 0.00 | 0.00 | 74 | 1017.9 | |
| 20260831034654 | 77 | 0.0 | 0.0 | 0.00 | 0.00 | 0.00 | 74 | 1018.0 | |
| 20260831034150 | 77 | 0.0 | 0.0 | 0.00 | 0.00 | 0.00 | 74 | 1018.0 | |
| 20260831033646 | 77 | 0.0 | 0.0 | 0.00 | 0.00 | 0.00 | 74 | 1017.9 | |
| 20260831033140 | 77 | 0.0 | 0.0 | 0.00 | 0.00 | 0.00 | 74 | 1017.9 | |
| 20260831032635 | 77 | 0.0 | 0.0 | 0.00 | 0.00 | 0.00 | 73 | 1017.9 | |
| 20260831032131 | 77 | 0.0 | 0.0 | 0.00 | 0.00 | 0.00 | 73 | 1018.1 | |
| 20260831031630 | 77 | 0.0 | 0.0 | 0.00 | 0.00 | 0.00 | 73 | 1017.9 | |
| 20260831031130 | 77 | 0.0 | 0.0 | 0.00 | 0.00 | 0.00 | 73 | 1018.0 | |
| 20260831030629 | 78 | 0.0 | 0.0 | 0.00 | 0.00 | 0.00 | 73 | 1018.0 | |
| 20260831030128 | 78 | 0.0 | 0.0 | 0.00 | 0.00 | 0.00 | 72 | 1017.9 | |
| 20260831025626 | 78 | 0.0 | 0.0 | 0.00 | 0.00 | 0.00 | 72 | 1017.9 | |
| 20260831025121 | 78 | 0.0 | 0.0 | 0.00 | 0.00 | 0.00 | 72 | 1017.8 | |
| 20260831024618 | 78 | 0.0 | 0.0 | 0.00 | 0.00 | 0.00 | 71 | 1017.7 | |
| 20260831024116 | 78 | 0.0 | 0.0 | 0.00 | 0.00 | 0.00 | 71 | 1017.8 | |
| 20260831023615 | 78 | 0.0 | 0.0 | 0.00 | 0.00 | 0.00 | 71 | 1017.8 | |
| 20260831023114 | 79 | 0.0 | 0.0 | 0.00 | 0.00 | 0.00 | 71 | 1017.8 | |
| 20260831022609 | 79 | 0.0 | 0.0 | 0.00 | 0.00 | 0.00 | 70 | 1017.6 | |
| 20260831022104 | 79 | 0.0 | 0.0 | 0.00 | 0.00 | 0.00 | 70 | 1017.7 | |
| 20260831021603 | 79 | 0.0 | 0.0 | 0.00 | 0.00 | 0.00 | 70 | 1017.6 | |
| 20260831021059 | 79 | 0.0 | 0.0 | 0.00 | 0.00 | 0.00 | 70 | 1017.6 | |
| 20260831020554 | 79 | 0.0 | 0.0 | 0.00 | 0.00 | 0.00 | 69 | 1017.6 | |
| 20260831020049 | 79 | 0.0 | 0.0 | 0.00 | 0.00 | 0.00 | 69 | 1017.5 | |
| 20260831015545 | 80 | 0.0 | 0.0 | 0.00 | 0.00 | 0.00 | 69 | 1017.5 | |
| 20260831015039 | 80 | 0.0 | 0.0 | 0.00 | 0.00 | 0.00 | 68 | 1017.5 | |
| 20260831014534 | 80 | 0.0 | 0.0 | 0.00 | 0.00 | 0.00 | 68 | 1017.4 | |
| 20260831014030 | 80 | 0.0 | 0.0 | 0.00 | 0.00 | 0.00 | 68 | 1017.4 | |
| 20260831013526 | 80 | 0.0 | 0.0 | 0.00 | 0.00 | 0.00 | 67 | 1017.5 | |
| 20260831013026 | 81 | 0.0 | 0.0 | 0.00 | 0.00 | 0.00 | 67 | 1017.6 | |
| 20260831012520 | 81 | 0.0 | 0.0 | 0.00 | 0.00 | 0.00 | 67 | 1017.3 | |
| 20260831012020 | 81 | 0.0 | 0.0 | 0.00 | 0.00 | 0.00 | 66 | 1017.2 | |
| 20260831011515 | 82 | 0.0 | 0.0 | 0.00 | 0.00 | 0.00 | 66 | 1017.2 | |
| 20260831011010 | 82 | 0.0 | 0.0 | 0.00 | 0.00 | 0.00 | 65 | 1017.1 | |
| 20260831010505 | 82 | 0.0 | 0.0 | 0.00 | 0.00 | 0.00 | 64 | 1016.9 | |
| 20260831010001 | 83 | 0.0 | 0.0 | 0.00 | 0.00 | 0.00 | 63 | 1017.0 | |
| 20260831005456 | 83 | 0.0 | 0.0 | 0.00 | 0.00 | 0.00 | 63 | 1017.0 | |
| 20260831004955 | 83 | 0.0 | 0.0 | 0.00 | 0.00 | 0.00 | 64 | 1017.0 | |
| 20260831004452 | 84 | 0.0 | 0.0 | 0.00 | 0.00 | 0.00 | 61 | 1016.9 | |
| 20260831003948 | 85 | 0.0 | 0.0 | 0.00 | 0.00 | 0.00 | 60 | 1017.0 | |
| 20260831003444 | 85 | 0.0 | 0.0 | 0.00 | 0.00 | 0.00 | 60 | 1016.8 | |
| 20260831002943 | 86 | 0.0 | 0.0 | 0.00 | 0.00 | 0.00 | 58 | 1016.9 | |
| 20260831002442 | 86 | 0.0 | 0.0 | 0.00 | 0.00 | 0.00 | 58 | 1017.1 | |
| 20260831001938 | 87 | 0.0 | 0.0 | 0.00 | 0.00 | 0.00 | 56 | 1016.9 | |
| 20260831001433 | 87 | 0.0 | 0.0 | 0.00 | 0.00 | 0.00 | 55 | 1017.0 | |
| 20260831000930 | 88 | 0.0 | 0.0 | 0.00 | 0.00 | 0.00 | 54 | 1017.0 | |
| 20260831000426 | 88 | 0.0 | 0.0 | 0.00 | 0.00 | 0.00 | 54 | 1017.1 | |
| 20260830235923 | 88 | 0.0 | 0.0 | 0.00 | 0.00 | 0.00 | 52 | 1016.9 | |
| 20260830235419 | 89 | 0.0 | 0.0 | 0.00 | 0.00 | 0.00 | 51 | 1017.1 | |
| 20260830234914 | 89 | 0.0 | 0.0 | 0.00 | 0.00 | 0.00 | 50 | 1017.1 | |
| 20260830234409 | 89 | 0.0 | 0.0 | 0.00 | 0.00 | 0.00 | 50 | 1017.0 | |
| 20260830233905 | 89 | 0.0 | 0.0 | 0.00 | 0.00 | 0.00 | 50 | 1017.0 | |
| 20260830233400 | 89 | 0.0 | 0.0 | 0.00 | 0.00 | 0.00 | 49 | 1017.1 | |
| 20260830232856 | 89 | 0.0 | 0.0 | 0.00 | 0.00 | 0.00 | 49 | 1017.1 | |
| 20260830232351 | 89 | 0.0 | 0.0 | 0.00 | 0.00 | 0.00 | 48 | 1017.2 | |
| 20260830231848 | 90 | 0.0 | 0.0 | 0.00 | 0.00 | 0.00 | 48 | 1017.0 | |
| 20260830231342 | 90 | 0.0 | 0.0 | 0.00 | 0.00 | 0.00 | 47 | 1017.1 | |
| 20260830230836 | 90 | 0.0 | 0.0 | 0.00 | 0.00 | 0.00 | 46 | 1016.9 | |
| 20260830230331 | 91 | 0.0 | 0.0 | 0.00 | 0.00 | 0.00 | 46 | 1016.8 |